Regional Weather Roundup
Issued by NWS Midland/Odessa, TX

Skip options and go directly to product.
Home | Oldest Version | Previous Version | Current Version | All | Text Only | Save Text | Print | Product List | Glossary Off

Skip product version selection by date and time.   

177
ASUS44 KMAF 091801
RWRMAF
MIDLAND AREA WEATHER ROUNDUP
NATIONAL WEATHER SERVICE MIDLAND TX
1200 PM CST TUE FEB 09 2016

...IN SOUTHWEST TEXAS AND SOUTHEAST NEW MEXICO...

CITY           SKY/WX    TMP DP  RH WIND       PRES   REMARKS
ALPINE         SUNNY     54  18  24 NE3       30.48F
ANDREWS        FAIR      56  18  22 W6        30.43S
ARTESIA        SUNNY     46  18  31 SE7       30.42F
BIG SPRING     SUNNY     55  21  26 W10       30.43F
CARLSBAD       SUNNY     50  19  29 E6        30.41F
DRYDEN           N/A     62  18  18 S8        30.39F
FORT STOCKTON  SUNNY     58  22  24 SE6       30.42F
GUAD PASS      SUNNY     51  14  22 SW7       30.43F
HOBBS          SUNNY     55  16  21 S8        30.43S
MARFA          SUNNY     55  16  21 SE7       30.43F
MIDLAND AIRPK  SUNNY     58  18  21 W8        30.44R
MIDLAND INTL   SUNNY     59  20  22 W7        30.41F
ODESSA         SUNNY     58  18  21 SW7       30.42F
PECOS          SUNNY     48  19  31 NE3       30.45F
PRESIDIO       FAIR      55  16  21 W5        30.43F
SEMINOLE       SUNNY     56  19  23 SW8       30.43F
SNYDER           N/A     62  24  23 NW9       30.37F
WINK           SUNNY     55  18  23 SW6       30.41F
$$
...OTHER STATIONS IN TEXAS...

CITY           SKY/WX    TMP DP  RH WIND       PRES   REMARKS
ABILENE        SUNNY     64  28  25 NW20      30.32F
AMARILLO       SUNNY     59  22  24 W22G28    30.34F
AUSTIN         SUNNY     63  21  20 W8G17     30.35F
BROWNSVILLE    SUNNY     70  25  18 NW10G20   30.40F
CORPUS CHRISTI MOSUNNY   69  22  16 N5        30.38F
DALLAS FTW     MOSUNNY   57  20  23 NW14      30.28F
DEL RIO        SUNNY     63  22  20 W5        30.41F
EL PASO        SUNNY     51  15  23 CALM      30.40F
HOUSTON INT    SUNNY     59  14  17 W12G22    30.31F
LUBBOCK        MOSUNNY   60  22  23 NW10G18   30.38F
SAN ANGELO     SUNNY     63  21  20 W15       30.39F
SAN ANTONIO    SUNNY     65  26  23 VRB5      30.37F
WACO           SUNNY     61  20  20 W13       30.31F
WICHITA FALLS  NOT AVBL
$$
...OTHER LOCATIONS IN NEW MEXICO...

CITY           SKY/WX    TMP DP  RH WIND       PRES   REMARKS
ALAMAGORDO     SUNNY     54  16  22 SW6       30.42F
ALBUQUERQUE    SUNNY     49  21  33 N9        30.44S
CANNON AFB     SUNNY     53  15  21 SW10G20   30.39F
CLOVIS         SUNNY     54  19  26 SW10G16   30.41F
HOLLOMAN AFB   SUNNY     54  16  22 VRB3      30.41F
ROSWELL        SUNNY     48  18  30 VRB5      30.41F
RUIDOSO          N/A     55  16  21 NW8       30.43S
SANTA FE       SUNNY     46  20  35 N12       30.42F
TRUTH OR CONSE SUNNY     54  20  26 N5        30.41F
TUCUMCARI      SUNNY     51  18  27 W5        30.40F
$$

USA.gov is the U.S. government's official web portal to all federal, state and local government web resources and services.